Reno - Stead, NV

8:27 PM PDT on June 26, 2017 (GMT -0700)
Reno - Stead

Weather History for KRTS - October, 2011

Change the Weather History Date:

Monday, October 3, 2011

  Actual Average (KRNO) Record (KRNO)
Temperature  
Mean Temperature 60 °F -  
Max Temperature 71 °F 75 °F 90 °F (1980)
Min Temperature 50 °F 36 °F 20 °F (1973)
Degree Days  
Heating Degree Days 4    
Growing Degree Days 10 (Base 50)    
Moisture  
Dew Point 33 °F    
Average Humidity 37    
Maximum Humidity 54    
Minimum Humidity 23    
Precipitation  
Precipitation 0.00 in - - ()
Sea Level Pressure  
Sea Level Pressure 29.96 in    
Wind  
Wind Speed 12 mph ()    
Max Wind Speed 26 mph    
Max Gust Speed 37 mph    
Visibility 10.0 miles    
Events      
Averages and records for this station are not official NWS values.
T = Trace of Precipitation, MM = Missing Value Source: Averaged Metar Reports

Daily Weather History Graph

Daily Weather History Graph

Search for Another Location

Airport or City:

Trip Planner

Search our weather history database for the weather conditions in past years. The results will help you decide how hot, cold, wet, or windy it might be!

Date:

Astronomy

Oct. 03, 2011 Rise Set
Actual Time 6:57 AM PDT 6:39 PM PDT
Civil Twilight 6:30 AM PDT 7:05 PM PDT
Nautical Twilight 5:59 AM PDT 7:37 PM PDT
Astronomical Twilight 5:27 AM PDT 8:08 PM PDT
Moon 1:58 PM PDT (10/3) 11:48 PM PDT (10/3)
Length of Visible Light 12h 35m
Length of Day
11h 41m
Waxing Crescent, 46% of the Moon is Illuminated
Oct 3
Waxing Crescent
Oct 3
First Quarter
Oct 11
Full
Oct 19
Last Quarter
Oct 26
New

Hourly Weather History & Observations

Time (PDT) Temp. Dew Point Humidity Pressure Visibility Wind Dir Wind Speed Gust Speed Precip Events Conditions
12:15 AM 60.8 °F 37.4 °F 42% 30.04 in 10.0 mi WSW 9.2 mph - N/A   Clear
12:35 AM 59.0 °F 37.4 °F 45% 30.04 in 10.0 mi SW 11.5 mph 16.1 mph N/A   Clear
12:55 AM 59.0 °F 37.4 °F 45% 30.04 in 10.0 mi South 3.5 mph - N/A   Clear
1:15 AM 59.0 °F 37.4 °F 45% 30.04 in 10.0 mi SE 4.6 mph - N/A   Clear
1:55 AM 59.0 °F 37.4 °F 45% 30.04 in 10.0 mi SSE 4.6 mph - N/A   Clear
2:15 AM 59.0 °F 37.4 °F 45% 30.04 in 10.0 mi SSW 6.9 mph - N/A   Clear
2:35 AM 57.2 °F 37.4 °F 48% 30.03 in 10.0 mi South 4.6 mph - N/A   Clear
2:55 AM 57.2 °F 37.4 °F 48% 30.03 in 10.0 mi South 4.6 mph - N/A   Clear
3:15 AM 55.4 °F 37.4 °F 51% 30.02 in 10.0 mi WSW 10.4 mph - N/A   Clear
3:35 AM 57.2 °F 37.4 °F 48% 30.01 in 10.0 mi WSW 9.2 mph - N/A   Clear
3:55 AM 57.2 °F 37.4 °F 48% 30.02 in 10.0 mi SW 11.5 mph - N/A   Clear
4:15 AM 57.2 °F 37.4 °F 48% 30.02 in 10.0 mi WSW 13.8 mph 18.4 mph N/A   Clear
4:35 AM 57.2 °F 37.4 °F 48% 30.01 in 10.0 mi SW 11.5 mph - N/A   Clear
4:55 AM 57.2 °F 35.6 °F 44% 30.01 in 10.0 mi WSW 10.4 mph 18.4 mph N/A   Clear
5:15 AM 53.6 °F 35.6 °F 51% 30.01 in 10.0 mi West 10.4 mph - N/A   Clear
5:35 AM 53.6 °F 35.6 °F 51% 30.01 in 10.0 mi West 10.4 mph - N/A   Clear
5:55 AM 53.6 °F 37.4 °F 54% 30.01 in 10.0 mi West 12.7 mph - N/A   Clear
6:15 AM 53.6 °F 37.4 °F 54% 30.01 in 10.0 mi West 11.5 mph - N/A   Clear
6:35 AM 53.6 °F 37.4 °F 54% 30.01 in 10.0 mi West 10.4 mph - N/A   Clear
6:55 AM 53.6 °F 37.4 °F 54% 30.01 in 10.0 mi West 11.5 mph - N/A   Clear
7:15 AM 53.6 °F 37.4 °F 54% 30.01 in 10.0 mi West 13.8 mph 17.3 mph N/A   Clear
7:35 AM 55.4 °F 37.4 °F 51% 30.01 in 10.0 mi West 10.4 mph - N/A   Clear
7:55 AM 57.2 °F 37.4 °F 48% 30.01 in 10.0 mi West 8.1 mph - N/A   Clear
8:15 AM 59.0 °F 37.4 °F 45% 30.01 in 10.0 mi West 10.4 mph - N/A   Clear
8:35 AM 60.8 °F 37.4 °F 42% 30.00 in 10.0 mi WSW 6.9 mph - N/A   Clear
8:55 AM 62.6 °F 37.4 °F 39% 30.00 in 10.0 mi SW 6.9 mph - N/A   Clear
9:15 AM 62.6 °F 37.4 °F 39% 30.00 in 10.0 mi South 6.9 mph - N/A   Clear
9:35 AM 62.6 °F 37.4 °F 39% 30.00 in 10.0 mi South 5.8 mph - N/A   Clear
9:55 AM 64.4 °F 35.6 °F 34% 29.99 in 10.0 mi SSE 8.1 mph - N/A   Partly Cloudy
10:15 AM 66.2 °F 35.6 °F 32% 29.99 in 10.0 mi SE 8.1 mph - N/A   Mostly Cloudy
10:35 AM 66.2 °F 32.0 °F 28% 29.98 in 10.0 mi South 12.7 mph 23.0 mph N/A   Mostly Cloudy
11:15 AM 68.0 °F 33.8 °F 28% 29.97 in 10.0 mi WSW 16.1 mph 20.7 mph N/A   Overcast
11:35 AM 68.0 °F 32.0 °F 26% 29.96 in 10.0 mi SW 12.7 mph 25.3 mph N/A   Mostly Cloudy
11:55 AM 68.0 °F 32.0 °F 26% 29.95 in 10.0 mi SW 23.0 mph 28.8 mph N/A   Mostly Cloudy
12:15 PM 69.8 °F 32.0 °F 25% 29.95 in 10.0 mi SSW 19.6 mph - N/A   Mostly Cloudy
12:35 PM 69.8 °F 33.8 °F 27% 29.94 in 10.0 mi SW 21.9 mph 25.3 mph N/A   Partly Cloudy
12:55 PM 68.0 °F 32.0 °F 26% 29.94 in 10.0 mi SSW 18.4 mph 28.8 mph N/A   Clear
1:15 PM 69.8 °F 32.0 °F 25% 29.93 in 10.0 mi SW 18.4 mph 28.8 mph N/A   Clear
1:35 PM 69.8 °F 32.0 °F 25% 29.92 in 10.0 mi WSW 21.9 mph 31.1 mph N/A   Clear
1:55 PM 71.6 °F 32.0 °F 23% 29.91 in 10.0 mi SW 20.7 mph 29.9 mph N/A   Clear
2:15 PM 69.8 °F 32.0 °F 25% 29.91 in 10.0 mi SW 21.9 mph 27.6 mph N/A   Clear
2:35 PM 69.8 °F 32.0 °F 25% 29.90 in 10.0 mi SW 23.0 mph 31.1 mph N/A   Clear
2:55 PM 69.8 °F 32.0 °F 25% 29.90 in 10.0 mi SW 21.9 mph 28.8 mph N/A   Clear
3:15 PM 68.0 °F 32.0 °F 26% 29.90 in 10.0 mi SW 21.9 mph 31.1 mph N/A   Clear
3:35 PM 68.0 °F 32.0 °F 26% 29.90 in 10.0 mi SW 26.5 mph 33.4 mph N/A   Clear
3:55 PM 68.0 °F 32.0 °F 26% 29.89 in 10.0 mi SW 20.7 mph 27.6 mph N/A   Clear
4:15 PM 68.0 °F 32.0 °F 26% 29.89 in 10.0 mi WSW 19.6 mph 26.5 mph N/A   Clear
4:35 PM 68.0 °F 32.0 °F 26% 29.89 in 10.0 mi SW 18.4 mph 27.6 mph N/A   Clear
4:55 PM 66.2 °F 32.0 °F 28% 29.89 in 10.0 mi WSW 23.0 mph 31.1 mph N/A   Clear
5:15 PM 64.4 °F 32.0 °F 30% 29.89 in 10.0 mi SW 26.5 mph 34.5 mph N/A   Clear
5:55 PM 62.6 °F 33.8 °F 34% 29.89 in 10.0 mi WSW 21.9 mph 36.8 mph N/A   Clear
6:15 PM 60.8 °F 33.8 °F 36% 29.89 in 10.0 mi WSW 21.9 mph 33.4 mph N/A   Clear
6:35 PM 59.0 °F 35.6 °F 42% 29.90 in 10.0 mi WSW 13.8 mph 31.1 mph N/A   Clear
6:55 PM 57.2 °F 35.6 °F 44% 29.91 in 10.0 mi West 19.6 mph 28.8 mph N/A   Clear
7:15 PM 57.2 °F 35.6 °F 44% 29.92 in 10.0 mi West 21.9 mph 31.1 mph N/A   Clear
7:55 PM 55.4 °F 35.6 °F 47% 29.92 in 10.0 mi West 17.3 mph 25.3 mph N/A   Clear
8:15 PM 55.4 °F 33.8 °F 44% 29.91 in 10.0 mi West 18.4 mph 26.5 mph N/A   Clear
8:35 PM 55.4 °F 32.0 °F 41% 29.91 in 10.0 mi West 17.3 mph 24.2 mph N/A   Clear
8:55 PM 55.4 °F 28.4 °F 36% 29.92 in 10.0 mi WNW 13.8 mph - N/A   Clear
9:35 PM 55.4 °F 19.4 °F 25% 29.92 in 10.0 mi West 18.4 mph - N/A   Clear
9:55 PM 53.6 °F 21.2 °F 28% 29.92 in 10.0 mi West 23.0 mph 28.8 mph N/A   Clear
10:15 PM 53.6 °F 23.0 °F 30% 29.92 in 10.0 mi West 25.3 mph 28.8 mph N/A   Clear
10:35 PM 53.6 °F 23.0 °F 30% 29.92 in 10.0 mi West 19.6 mph 29.9 mph N/A   Clear
10:55 PM 53.6 °F 21.2 °F 28% 29.94 in 10.0 mi West 21.9 mph 28.8 mph N/A   Clear
11:15 PM 51.8 °F 21.2 °F 30% 29.95 in 10.0 mi West 15.0 mph - N/A   Clear
11:35 PM 50.0 °F 19.4 °F 30% 29.95 in 10.0 mi West 12.7 mph - N/A   Clear
11:55 PM 50.0 °F 15.8 °F 26% 29.94 in 10.0 mi WNW 15.0 mph 21.9 mph N/A   Mostly Cloudy